• In Uzbekistan
  • List of Countries
  • For 7 days
  • Water Temperature
  • Satellite Maps
  • Weather Map
  • Weather Widgets
  • user-avatar
    Login

    Hourly Weather Wadi Halfa'

    Today, 17 December, Sunday

    Time Temperature Precipitation Wind Pressure Humidity
    00:00 +19°C° 0 mm 3 mps 737 mmHg 34%
    01:00 +18°C° 0 mm 3 mps 737 mmHg 35%
    02:00 +18°C° 0 mm 3 mps 736 mmHg 36%
    03:00 +18°C° 0 mm 2 mps 736 mmHg 39%
    04:00 +17°C° 0 mm 2 mps 736 mmHg 42%
    05:00 +17°C° 0 mm 2 mps 736 mmHg 45%
    06:00 +18°C° 0 mm 3 mps 736 mmHg 45%
    07:00 +19°C° 0 mm 3 mps 736 mmHg 45%
    08:00 +20°C° 0 mm 3 mps 737 mmHg 43%
    09:00 +22°C° 0 mm 3 mps 737 mmHg 38%
    10:00 +26°C° 0 mm 4 mps 737 mmHg 32%
    11:00 +28°C° 0 mm 4 mps 737 mmHg 27%
    12:00 +29°C° 0 mm 4 mps 736 mmHg 24%
    13:00 +30°C° 0 mm 4 mps 736 mmHg 21%
    14:00 +31°C° 0 mm 3 mps 735 mmHg 17%
    15:00 +30°C° 0 mm 3 mps 735 mmHg 18%
    16:00 +29°C° 0 mm 3 mps 735 mmHg 19%
    17:00 +28°C° 0 mm 3 mps 735 mmHg 20%
    18:00 +27°C° 0 mm 3 mps 735 mmHg 22%
    19:00 +26°C° 0 mm 3 mps 736 mmHg 24%
    20:00 +24°C° 0 mm 3 mps 736 mmHg 27%
    21:00 +24°C° 0 mm 3 mps 736 mmHg 28%
    22:00 +22°C° 0 mm 3 mps 736 mmHg 30%
    23:00 +21°C° 0 mm 2 mps 736 mmHg 31%

    Tomorrow, 18 December, Monday

    Time Temperature Precipitation Wind Pressure Humidity
    00:00 +21°C° 0 mm 2 mps 736 mmHg 35%
    01:00 +20°C° 0 mm 2 mps 736 mmHg 39%
    02:00 +20°C° 0 mm 2 mps 736 mmHg 42%
    03:00 +20°C° 0 mm 2 mps 736 mmHg 47%
    04:00 +19°C° 0 mm 2 mps 736 mmHg 51%
    05:00 +19°C° 0 mm 2 mps 736 mmHg 55%
    06:00 +20°C° 0 mm 2 mps 736 mmHg 53%
    07:00 +20°C° 0 mm 2 mps 736 mmHg 52%
    08:00 +21°C° 0 mm 2 mps 737 mmHg 50%
    09:00 +24°C° 0 mm 2 mps 737 mmHg 43%
    10:00 +27°C° 0 mm 3 mps 737 mmHg 35%
    11:00 +29°C° 0 mm 3 mps 737 mmHg 28%
    12:00 +30°C° 0 mm 3 mps 736 mmHg 25%
    13:00 +31°C° 0 mm 3 mps 736 mmHg 22%
    14:00 +33°C° 0 mm 3 mps 735 mmHg 19%
    15:00 +31°C° 0 mm 3 mps 735 mmHg 19%
    16:00 +30°C° 0 mm 3 mps 735 mmHg 20%
    17:00 +29°C° 0 mm 3 mps 734 mmHg 20%
    18:00 +28°C° 0 mm 3 mps 735 mmHg 22%
    19:00 +27°C° 0 mm 3 mps 735 mmHg 25%
    20:00 +25°C° 0 mm 3 mps 735 mmHg 27%
    21:00 +25°C° 0 mm 3 mps 735 mmHg 28%
    22:00 +24°C° 0 mm 3 mps 735 mmHg 29%
    23:00 +24°C° 0 mm 3 mps 735 mmHg 31%

    Day after tomorrow, 19 December, Tuesday

    Time Temperature Precipitation Wind Pressure Humidity
    00:00 +22°C° 0 mm 3 mps 735 mmHg 33%
    01:00 +22°C° 0 mm 3 mps 735 mmHg 36%
    02:00 +21°C° 0 mm 3 mps 735 mmHg 38%
    03:00 +21°C° 0 mm 3 mps 735 mmHg 40%
    04:00 +21°C° 0 mm 3 mps 734 mmHg 41%
    05:00 +20°C° 0 mm 3 mps 734 mmHg 43%
    06:00 +21°C° 0 mm 3 mps 735 mmHg 41%
    07:00 +22°C° 0 mm 3 mps 735 mmHg 38%
    08:00 +24°C° 0 mm 3 mps 736 mmHg 36%
    09:00 +26°C° 0 mm 4 mps 736 mmHg 32%
    10:00 +29°C° 0 mm 5 mps 736 mmHg 27%
    11:00 +32°C° 0 mm 6 mps 736 mmHg 23%
    12:00 +33°C° 0 mm 6 mps 735 mmHg 21%
    13:00 +34°C° 0 mm 5 mps 734 mmHg 20%
    14:00 +35°C° 0 mm 5 mps 734 mmHg 18%
    15:00 +34°C° 0 mm 4 mps 734 mmHg 19%
    16:00 +33°C° 0 mm 3 mps 733 mmHg 20%
    17:00 +30°C° 0 mm 3 mps 733 mmHg 20%
    18:00 +29°C° 0 mm 3 mps 734 mmHg 21%
    19:00 +28°C° 0 mm 3 mps 734 mmHg 22%
    20:00 +27°C° 0 mm 2 mps 734 mmHg 22%
    21:00 +26°C° 0 mm 2 mps 734 mmHg 23%
    22:00 +25°C° 0 mm 2 mps 734 mmHg 23%
    23:00 +25°C° 0 mm 2 mps 734 mmHg 24%

    20 December, Wednesday

    Time Temperature Precipitation Wind Pressure Humidity
    00:00 +25°C° 0 mm 2 mps 734 mmHg 24%
    01:00 +24°C° 0 mm 3 mps 734 mmHg 25%
    02:00 +24°C° 0 mm 3 mps 734 mmHg 26%
    03:00 +22°C° 0 mm 3 mps 734 mmHg 29%
    04:00 +22°C° 0 mm 3 mps 734 mmHg 33%
    05:00 +22°C° 0 mm 3 mps 734 mmHg 37%
    06:00 +22°C° 0 mm 3 mps 735 mmHg 37%
    07:00 +24°C° 0 mm 3 mps 735 mmHg 38%
    08:00 +25°C° 0 mm 3 mps 735 mmHg 39%
    09:00 +27°C° 0 mm 4 mps 736 mmHg 34%
    10:00 +29°C° 0 mm 5 mps 736 mmHg 28%
    11:00 +33°C° 0 mm 6 mps 736 mmHg 22%
    12:00 +34°C° 0 mm 5 mps 735 mmHg 20%
    13:00 +34°C° 0 mm 5 mps 734 mmHg 17%
    14:00 +35°C° 0 mm 5 mps 734 mmHg 15%
    15:00 +34°C° 0 mm 4 mps 734 mmHg 16%
    16:00 +33°C° 0 mm 3 mps 734 mmHg 18%
    17:00 +31°C° 0 mm 3 mps 734 mmHg 19%
    18:00 +30°C° 0 mm 3 mps 734 mmHg 20%
    19:00 +28°C° 0 mm 2 mps 735 mmHg 22%
    20:00 +27°C° 0 mm 2 mps 735 mmHg 23%
    21:00 +27°C° 0 mm 3 mps 735 mmHg 24%
    22:00 +26°C° 0 mm 3 mps 735 mmHg 24%
    23:00 +26°C° 0 mm 3 mps 735 mmHg 25%

    21 December, Thursday

    Time Temperature Precipitation Wind Pressure Humidity
    00:00 +26°C° 0 mm 3 mps 735 mmHg 27%
    01:00 +25°C° 0 mm 3 mps 735 mmHg 29%
    02:00 +25°C° 0 mm 3 mps 735 mmHg 30%
    03:00 +24°C° 0 mm 3 mps 735 mmHg 37%
    04:00 +24°C° 0 mm 3 mps 735 mmHg 43%
    05:00 +22°C° 0 mm 3 mps 735 mmHg 49%
    06:00 +24°C° 0 mm 3 mps 736 mmHg 50%
    07:00 +25°C° 0 mm 3 mps 736 mmHg 52%
    08:00 +25°C° 0 mm 4 mps 737 mmHg 53%
    09:00 +27°C° 0 mm 4 mps 737 mmHg 44%
    10:00 +30°C° 0 mm 5 mps 736 mmHg 35%
    11:00 +33°C° 0 mm 6 mps 736 mmHg 25%
    12:00 +34°C° 0 mm 6 mps 736 mmHg 23%
    13:00 +35°C° 0 mm 5 mps 735 mmHg 20%
    14:00 +36°C° 0 mm 5 mps 734 mmHg 17%
    15:00 +35°C° 0 mm 5 mps 734 mmHg 18%
    16:00 +34°C° 0 mm 4 mps 734 mmHg 20%
    17:00 +31°C° 0 mm 3 mps 734 mmHg 21%
    18:00 +30°C° 0 mm 3 mps 734 mmHg 23%
    19:00 +29°C° 0 mm 3 mps 735 mmHg 25%
    20:00 +28°C° 0 mm 3 mps 735 mmHg 28%
    21:00 +27°C° 0 mm 3 mps 735 mmHg 30%
    22:00 +27°C° 0 mm 3 mps 735 mmHg 32%
    23:00 +26°C° 0 mm 3 mps 735 mmHg 34%

    22 December, Friday

    Time Temperature Precipitation Wind Pressure Humidity
    00:00 +26°C° 0 mm 3 mps 735 mmHg 36%
    01:00 +25°C° 0 mm 3 mps 735 mmHg 37%
    02:00 +25°C° 0 mm 3 mps 735 mmHg 39%
    03:00 +25°C° 0 mm 3 mps 735 mmHg 43%
    04:00 +24°C° 0 mm 3 mps 735 mmHg 46%
    05:00 +24°C° 0 mm 3 mps 735 mmHg 50%
    06:00 +24°C° 0 mm 3 mps 735 mmHg 50%
    07:00 +25°C° 0 mm 3 mps 735 mmHg 51%
    08:00 +25°C° 0 mm 3 mps 735 mmHg 51%
    09:00 +28°C° 0 mm 3 mps 735 mmHg 43%
    10:00 +30°C° 0 mm 4 mps 735 mmHg 34%
    11:00 +33°C° 0 mm 4 mps 735 mmHg 26%
    12:00 +34°C° 0 mm 4 mps 734 mmHg 22%
    13:00 +35°C° 0 mm 4 mps 734 mmHg 19%
    14:00 +36°C° 0 mm 4 mps 733 mmHg 15%
    15:00 +35°C° 0 mm 3 mps 733 mmHg 16%
    16:00 +34°C° 0 mm 3 mps 733 mmHg 17%
    17:00 +33°C° 0 mm 3 mps 733 mmHg 18%
    18:00 +30°C° 0 mm 3 mps 733 mmHg 20%
    19:00 +29°C° 0 mm 3 mps 733 mmHg 22%
    20:00 +28°C° 0 mm 3 mps 733 mmHg 25%
    21:00 +27°C° 0 mm 3 mps 733 mmHg 27%
    22:00 +27°C° 0 mm 3 mps 733 mmHg 29%
    23:00 +26°C° 0 mm 3 mps 733 mmHg 31%
    Show more

    XHprof extension not loaded